{"data":{"norad_id":53219,"intl_designator":"2022-084AG","name":"STARLINK-4373","alt_names":[],"object_type":"PAYLOAD","status":"ACTIVE","operator":null,"country":"US","launch_date":"2022-07-22","launch_site_code":"AFWTR","launch_vehicle":null,"mission":null,"orbit_class":"UNKNOWN","rcs_meters":null,"size_class":null,"mass_kg":null,"dimensions":null,"purposes":["comms"],"wikipedia_slug":null,"has_3d_model":false,"image_url":null,"decayed_at":null,"tle_current":{"epoch":"2026-05-25T03:00:55.182816Z","epoch_age_seconds":54467,"freshness":"FRESH","line1":"1 53219U 22084AG  26145.12563869 -.00006404  00000+0 -44010-3 0  9991","line2":"2 53219  97.4515 206.1745 0000743  87.1330 272.9982 15.05658160210889","mean_motion":15.0565816,"eccentricity":7.43e-5,"inclination_deg":97.4515,"raan_deg":206.1745,"arg_perigee_deg":87.133,"mean_anomaly_deg":272.9982,"bstar":-0.0004401,"rev_number":21088,"period_min":95.639238590518,"perigee_km":548.97140176302,"apogee_km":550.00084655927,"semimajor_km":6927.6231241611,"source":"CELESTRAK","updated_at":"2026-05-25T13:38:17.355707Z"}}}